This demonstration page uses our WeatherBlox Daily Observations layout. Learn more.

Left ArrowRight Arrow

Hourly Observations for June 30, 2016

Temp ( °F °C ) Dew Point ( °F °C ) Humidity (%) Winds ( mph kmh ) Pressure ( in mb ) Visibility ( mi km ) Precip ( " mm )
12:51 am 00:51 Clear 70 21.1 65 18.3 84 84 NW 13 20 29.86 1011 10 16 0.00 0.00
1:51 am 01:51 Mostly Cloudy 71 21.7 64 17.8 79 79 NW 13 20 29.86 1011 10 16 0.00 0.00
2:51 am 02:51 Clear 70 21.1 64 17.8 82 82 NW 7 11 29.85 1011 10 16 0.00 0.00
3:51 am 03:51 Mostly Clear 70 21.1 66 18.9 87 87 NW 6 9 29.86 1011 10 16 0.00 0.00
4:51 am 04:51 Clear 69 20.6 66 18.9 90 90 W 8 13 29.87 1012 10 16 0.00 0.00
5:51 am 05:51 Sunny 69 20.6 65 18.3 87 87 W 6 9 29.89 1012 10 16 0.00 0.00
6:51 am 06:51 Sunny 70 21.1 65 18.3 84 84 NNW 5 7 29.91 1013 10 16 0.00 0.00
7:51 am 07:51 Sunny 72 22.2 65 18.3 79 79 NW 7 11 29.92 1013 10 16 0.00 0.00
8:51 am 08:51 Sunny 73 22.8 64 17.8 74 74 W 7 11 29.94 1014 10 16 0.00 0.00
9:51 am 09:51 Sunny 74 23.3 65 18.3 74 74 WNW 10 17 29.93 1014 10 16 0.00 0.00
10:51 am 10:51 Sunny 77 25 64 17.8 64 64 WNW 7 11 29.94 1014 10 16 0.00 0.00
11:51 am 11:51 Sunny 81 27.2 62 16.7 53 53 NW 12 19 29.91 1013 10 16 0.00 0.00
12:51 pm 12:51 Sunny 84 28.9 61 16.1 46 46 WNW 17 28 29.88 1012 10 16 0.00 0.00
1:51 pm 13:51 Sunny 82 27.8 63 17.2 53 53 NW 17 28 29.86 1011 10 16 0.00 0.00
2:51 pm 14:51 Mostly Sunny 82 27.8 62 16.7 51 51 WNW 17 28 29.86 1011 10 16 0.00 0.00
3:51 pm 15:51 Mostly Cloudy 81 27.2 63 17.2 54 54 WNW 7 11 29.86 1011 10 16 0.00 0.00
4:51 pm 16:51 Cloudy 81 27.2 60 15.6 49 49 WNW 6 9 29.86 1011 10 16 0.00 0.00
5:51 pm 17:51 Cloudy 79 26.1 64 17.8 60 60 NW 7 11 29.85 1011 10 16 0.00 0.00
6:51 pm 18:51 Mostly Sunny 78 25.6 61 16.1 56 56 E 7 11 29.87 1012 10 16 0.00 0.00
7:51 pm 19:51 Partly Cloudy 78 25.6 59 15 52 52 E 7 11 29.86 1011 10 16 0.00 0.00
8:51 pm 20:51 Clear 77 25 59 15 54 54 ESE 7 11 29.85 1011 10 16 0.00 0.00
9:51 pm 21:51 Mostly Cloudy 75 23.9 60 15.6 60 60 E 9 15 29.88 1012 10 16 0.00 0.00
10:51 pm 22:51 Mostly Clear 75 23.9 61 16.1 62 62 ESE 7 11 29.89 1012 10 16 0.00 0.00
11:51 pm 23:51 Mostly Cloudy 74 23.3 64 17.8 71 71 E 6 9 29.89 1012 10 16 0.00 0.00

Powered by AerisWeather